Location: Roland
(31.1349°N, 85.4372°W)
Time: 08:46:24
(UTC+00:00)

Tiros 1 despin weight - All Passes

Search period start: 19 April 2021 00:00
Search period end: 29 April 2021 00:00
Orbit: 593 x 641 km, 48.2° (Epoch: 18 April)

Date Brightness Start Highest point End Pass type
(mag) Time Alt. Az. Time Alt. Az. Time Alt. Az.
19 Apr - 09:55:59 10° SW 10:00:36 73° SE 10:05:09 10° NE visible
19 Apr - 11:38:56 10° WNW 11:42:29 22° NNW 11:46:00 10° NNE daylight
19 Apr - 15:07:28 10° N 15:08:45 11° NNE 15:10:02 10° NNE daylight
19 Apr - 16:47:17 10° NNW 16:51:22 34° NNE 16:55:23 10° E daylight
19 Apr - 18:28:52 10° WNW 18:32:49 32° SW 18:36:44 10° SSE daylight
20 Apr - 08:32:13 10° S 08:35:40 21° SE 08:39:05 10° E visible
20 Apr - 10:12:24 10° WSW 10:16:56 54° NW 10:21:25 10° NE visible
20 Apr - 11:56:46 10° NW 11:59:15 14° NNW 12:01:43 10° NNE daylight
20 Apr - 15:22:53 10° NNW 15:25:38 16° NNE 15:28:21 10° ENE daylight
20 Apr - 17:03:22 10° NW 17:07:48 69° NE 17:12:11 10° ESE daylight
20 Apr - 18:46:29 10° W 18:48:52 14° SW 18:51:16 10° SSW daylight
21 Apr - 08:47:21 10° SSW 08:51:47 45° SE 08:56:11 10° ENE visible
21 Apr - 10:29:23 10° W 10:33:25 29° NNW 10:37:26 10° NNE visible
21 Apr - 12:15:23 10° NNW 12:16:10 10° NNW 12:16:56 10° N daylight
21 Apr - 15:38:39 10° NNW 15:42:21 25° NNE 15:46:01 10° E daylight
21 Apr - 17:19:45 10° WNW 17:24:05 53° SW 17:28:21 10° SSE daylight
22 Apr - 07:24:54 10° SSE 07:26:58 13° SE 07:29:00 10° E visible
22 Apr - 09:03:23 10° SW 09:08:02 83° NW 09:12:38 10° NE visible
22 Apr - 10:46:54 10° WNW 10:50:06 18° NNW 10:53:17 10° NNE daylight
22 Apr - 14:14:27 10° N 14:16:28 13° NNE 14:18:28 10° NE daylight
22 Apr - 15:54:36 10° NW 15:58:54 45° NE 16:03:08 10° ESE daylight
22 Apr - 17:36:40 10° WNW 17:40:12 23° SW 17:43:43 10° S daylight
23 Apr - 07:39:01 10° S 07:43:01 28° SE 07:46:59 10° ENE visible
23 Apr - 09:20:02 10° WSW 09:24:26 41° NW 09:28:48 10° NE visible
23 Apr - 11:04:57 10° NW 11:06:56 12° NNW 11:08:54 10° N daylight
23 Apr - 14:30:04 10° NNW 14:33:17 19° NNE 14:36:28 10° ENE daylight
23 Apr - 16:10:48 10° NW 16:15:16 87° SW 16:19:41 10° SE daylight
24 Apr - 07:54:34 10° SW 07:59:11 63° SE 08:03:45 10° NE visible
24 Apr - 09:37:13 10° W 09:41:00 24° NNW 09:44:44 10° NNE visible
24 Apr - 13:06:11 10° N 13:07:14 11° NNE 13:08:18 10° NNE daylight
24 Apr - 14:45:55 10° NNW 14:49:56 31° NNE 14:53:53 10° E daylight
24 Apr - 16:27:21 10° WNW 16:31:29 38° SW 16:35:34 10° SSE daylight
25 Apr - 06:31:07 10° S 06:34:17 18° SE 06:37:25 10° E night (unlit)
25 Apr - 08:10:52 10° WSW 08:15:29 62° NW 08:20:05 10° NE visible
25 Apr - 09:54:56 10° WNW 09:57:44 16° NNW 10:00:30 10° NNE visible
25 Apr - 13:21:32 10° NNW 13:24:09 15° NNE 13:26:44 10° NE daylight
25 Apr - 15:01:57 10° NW 15:06:24 60° NE 15:10:46 10° ESE daylight
25 Apr - 16:44:40 10° W 16:47:34 17° SW 16:50:25 10° S daylight
26 Apr - 06:46:01 10° SSW 06:50:22 39° SE 06:54:42 10° ENE visible
26 Apr - 08:27:44 10° W 08:31:58 33° NNW 08:36:08 10° NNE visible
26 Apr - 10:13:14 10° NNW 10:14:37 11° NNW 10:16:00 10° N visible
26 Apr - 13:37:16 10° NNW 13:40:54 23° NNE 13:44:28 10° E daylight
26 Apr - 15:18:16 10° NW 15:22:42 63° SW 15:27:04 10° SE daylight
27 Apr - 05:24:24 10° SE 05:25:34 11° SE 05:26:45 10° ESE night (unlit)
27 Apr - 07:01:55 10° SW 07:06:35 86° SE 07:11:15 10° NE visible
27 Apr - 08:45:09 10° WNW 08:48:35 20° NNW 08:52:00 10° NNE visible
27 Apr - 12:13:05 10° N 12:14:57 12° NNE 12:16:47 10° NE daylight
27 Apr - 13:53:12 10° NW 13:57:29 40° NE 14:01:40 10° ESE daylight
27 Apr - 15:35:03 10° WNW 15:38:51 27° SW 15:42:37 10° S daylight
28 Apr - 05:37:47 10° S 05:41:36 25° SE 05:45:23 10° ENE night (unlit)
28 Apr - 07:18:26 10° WSW 07:22:56 47° NW 07:27:26 10° NE visible
28 Apr - 09:03:03 10° NW 09:05:23 14° NNW 09:07:42 10° NNE visible
28 Apr - 12:28:42 10° NNW 12:31:47 18° NNE 12:34:51 10° ENE daylight
28 Apr - 14:09:21 10° NW 14:13:52 82° NE 14:18:19 10° SE daylight
28 Apr - 15:53:10 10° WSW 15:54:53 12° SW 15:56:35 10° SSW daylight
